Regional Weather Roundup
Issued by NWS

Home | Current Version | Previous Version | Graphics & Text | Print | Product List | Glossary Off
Versions: 1 2 3 4 5 6 7 8 9 10 11 12 13 14 15 16 17 18 19 20 21 22 23 24 25 26 27 28 29 30 31 32 33 34 35 36 37 38 39 40 41 42 43 44 45 46 47 48 49 50

000
ASUS43 KMPX 241401
RWRMN
WEATHER ROUNDUP FOR MINNESOTA
NATIONAL WEATHER SERVICE TWIN CITIES/CHANHASSEN MN
900 AM CDT MON APR 24 2017


NOTE: "FAIR" INDICATES FEW OR NO CLOUDS BELOW 12,000 FEET WITH NO
SIGNIFICANT WEATHER AND/OR OBSTRUCTIONS TO VISIBILITY. N/A MEANS
CURRENT SKY AND/OR WEATHER CONDITIONS ARE NOT AVAILABLE.

MNZ060>063-068>070-241500-
   Twin Cities Metro

CITY           SKY/WX    TMP DP  RH WIND       PRES   REMARKS
TWIN CITIES    CLOUDY    58  35  42 S12       29.80S
ST PAUL        PTSUNNY   58  39  49 SE12      29.81S
CRYSTAL        CLOUDY    58  34  40 S13       29.77F
BLAINE         PTSUNNY   57  39  51 SE9       29.78F
LAKEVILLE      CLOUDY    57  37  47 S10       29.80S
EDEN PRAIRIE   CLOUDY    58  36  43 S13       29.77F
SOUTH ST PAUL  CLOUDY    58  36  44 S7        29.80S
LAKE ELMO      FAIR      55  41  58 SE6       29.82F
$$
MNZ001>005-007-008-013>017-022>024-027-028-241500-
   Northwest Minnesota

CITY           SKY/WX    TMP DP  RH WIND       PRES   REMARKS
BEMIDJI        CLOUDY    34  30  86 E14G21    29.73S WCI  25
HALLOCK        CLOUDY    36  30  80 E17G26    29.78F
ROSEAU         CLOUDY    34  28  80 E16G24    29.83R WCI  23
WARROAD        CLOUDY    34  30  86 E17G26    29.82F WCI  23
THIEF RVR FALL LGT RAIN  34  30  86 E16       29.75F WCI  23
CROOKSTON      MIX PCPN  34  32  93 E16       29.71F WCI  23
FOSSTON        CLOUDY    34  28  80 E9        29.71F WCI  26
DETROIT LAKES  CLOUDY    39  32  75 SE13G21   29.65F
MOORHEAD       CLOUDY    41  34  75 NE6       29.63F
PARK RAPIDS    MOSUNNY   40  29  64 E12       29.69F
MAHNOMEN       CLOUDY    37  31  81 E14       29.67S
$$
MNZ006-009>011-018-025>026-241500-
   North Central Minnesota

CITY           SKY/WX    TMP DP  RH WIND       PRES   REMARKS
BAUDETTE       MIX PCPN  32  28  85 E21G33    29.80F WCI  20
FLAG ISLAND    LGT SNOW  30  28  93 E12G23    29.84F WCI  21
INTL FALLS     MIX PCPN  31  27  85 E13G25    29.87F WCI  21
WASKISH        CLOUDY    32  28  86 E16G22    29.79F WCI  21
BIG FORK       CLOUDY    34  27  75 E7        29.81F WCI  28
LONGVILLE      CLOUDY    37  30  75 E5        29.74F
GRAND RAPIDS   CLOUDY    36  29  75 SE12G17   29.81S
CRANE LAKE     CLOUDY    30  25  80 E3        29.94S
ORR            CLOUDY    30  21  69 MISG      29.84F
COOK           PTSUNNY   30  25  80 E9G18     29.86F WCI  22
WALKER         CLOUDY    35  31  85 E12       29.74F WCI  26
$$
MNZ012-019>021-037-241500-
   Northeast Minnesota

CITY           SKY/WX    TMP DP  RH WIND       PRES   REMARKS
DULUTH         CLOUDY    34  26  72 E30       29.86F WCI  20
ELY            CLOUDY    30  25  80 E18G24    29.91F WCI  18
HIBBING        CLOUDY    33  27  78 SE17G25   29.83F WCI  22
EVELETH        CLOUDY    37  26  62 E14G21    29.86F
DULUTH HARBOR  CLOUDY    37  30  75 E23       29.92F
TWO HARBORS    CLOUDY    37  28  70 E22G32    29.91F
SILVER BAY     MOSUNNY   36  28  75 E18G28    29.94F
GRAND MARAIS     N/A     34  28  79 E18G32    30.03F WCI  23
G MARAIS ARPRT CLOUDY    28  19  69 E13G25    29.98F WCI  18
$$
MNZ029>031-032-039>041-046>048-054>057-064-241500-
   West Central Minnesota

CITY           SKY/WX    TMP DP  RH WIND       PRES   REMARKS
FERGUS FALLS   CLOUDY    48  36  61 SE16      29.61S
WHEATON        CLOUDY    52  37  58 SE14      29.59F
MORRIS         CLOUDY    54  37  54 SE17      29.60F
ALEXANDRIA     MOSUNNY   49  37  63 SE12      29.66F
ELBOW LAKE     FAIR      51  37  57 E15G21    29.62S
WADENA         MOSUNNY   41  34  75 E14       29.67F
GLENWOOD       MOSUNNY   55  37  50 S20       29.65F
APPLETON       CLOUDY    57  36  44 S15       29.61F
BENSON         CLOUDY    57  32  38 S14G21    29.64F
ORTONVILLE     CLOUDY    57  37  47 S12       29.59F
MADISON        CLOUDY    59  37  44 S18G28    29.60S
WILLMAR        FAIR      57  39  51 S10G20    29.67F
$$
MNZ033>034-036-042>043-049>051-058-059-241500-
   Central Minnesota

CITY           SKY/WX    TMP DP  RH WIND       PRES   REMARKS
ST CLOUD       MOSUNNY   50  38  63 SE8G17    29.72F
SAUK CENTRE    FAIR      49  38  65 SE10G18   29.68F
PAYNESVILLE    MOSUNNY   55  36  49 S12G17    29.69F
AITKIN         CLOUDY    41  30  65 E9        29.75F
PINE RIVER     MOSUNNY   39  34  81 E15       29.76F
BRAINERD       MOSUNNY   43  36  76 SE10G22   29.73F
STAPLES        CLOUDY    43  34  70 SE7       29.69F
LONG PRAIRIE   FAIR      46  36  66 E8        29.69F
LITTLE FALLS   CLOUDY    45  34  65 SE10      29.72F
LITCHFIELD     MOSUNNY   57  39  51 S5        29.71F
BUFFALO        PTSUNNY   58  35  43 SE9       29.76S
MAPLE LAKE     MOSUNNY   58  39  50 S10G17    29.74F
HUTCHINSON     CLOUDY    56  39  53 S9G20     29.73F
$$
MNZ037-044-045-052-053-241500-
   East Central Minnesota

CITY           SKY/WX    TMP DP  RH WIND       PRES   REMARKS
PRINCETON      PTSUNNY   50  41  71 SE9       29.76F
MORA           CLOUDY    41  36  81 E5        29.81S
CAMBRIDGE      MOSUNNY   54  39  58 SE6       29.76F
RUSH CITY      CLOUDY    47  40  77 E3        29.80F
MOOSE LAKE     CLOUDY    37  30  75 E8        29.82F
HINCKLEY       FAIR      41  36  81 E7        29.82S
CLOQUET        CLOUDY    36  27  69 E14G23    29.84F
MCGREGOR       MOSUNNY   37  32  81 E15       29.80F
$$
MNZ071>073-080-081-089-090-097-098-241500-
   Southwest Minnesota

CITY           SKY/WX    TMP DP  RH WIND       PRES   REMARKS
MONTEVIDEO     CLOUDY    57  36  44 SW16G24   29.63F
GRANITE FALLS  CLOUDY    58  39  48 S21G28    29.66F
CANBY          CLOUDY    57  36  45 SW20G30   29.61S
MARSHALL       CLOUDY    57  35  43 S25G38    29.62F
REDWOOD FALLS  CLOUDY    57  36  45 S22       29.68F
OLIVIA         CLOUDY    55  36  47 S15G25    29.68F
PIPESTONE      CLOUDY    52  34  50 S22G28    29.63F
WINDOM         CLOUDY    55  36  47 S20G29    29.70F
WORTHINGTON    PTSUNNY   54  37  52 S21G29    29.69F
JACKSON        CLOUDY    54  34  47 S23       29.74F
TRACY          CLOUDY    56  37  49 S15G24    29.66F
SLAYTON        CLOUDY    53  35  49 S18G32    29.68F
$$
MNZ065>067-074>077-082>085-091>093-241500-
   South Central Minnesota

CITY           SKY/WX    TMP DP  RH WIND       PRES   REMARKS
MANKATO        PTSUNNY   58  35  42 S18G25    29.77F
NEW ULM        PTSUNNY   55  36  47 S18       29.73S
ST JAMES       CLOUDY    57  36  44 S25G32    29.74F
FAIRMONT       CLOUDY    55  37  50 S22G30    29.76F
GLENCOE        PTSUNNY   58  40  51 S13       29.74F
FARIBAULT      PTSUNNY   55  37  50 S12G18    29.81S
OWATONNA       CLOUDY    55  36  47 S15       29.81F
WASECA         CLOUDY    55  34  44 S18G25    29.81F
ALBERT LEA     CLOUDY    54  36  50 S10       29.82F
$$
MNZ078>079-086>088-094>096-241500-
   Southeast Minnesota

CITY           SKY/WX    TMP DP  RH WIND       PRES   REMARKS
ROCHESTER      CLOUDY    55  36  48 S16G22    29.86S
RED WING       PTSUNNY   57  34  41 SE7       29.83S
STANTON        CLOUDY    58  36  44 S9G16     29.80F
DODGE CENTER   CLOUDY    55  36  47 S18       29.83F
WINONA         MOSUNNY   50  41  71 SE10      29.90F
AUSTIN         CLOUDY    54  36  50 S9        29.84F
PRESTON        MOSUNNY   54  35  48 S12       29.88F
$$
ABBREVIATIONS USED IN REMARKS
   TC - TEMPERATURES IN CELSIUS
  WCI - WIND CHILL INDEX
   HX - HEAT INDEX
  VSB - VISIBILITY
$$




USA.gov is the U.S. government's official web portal to all federal, state and local government web resources and services.